THOR ABLESTAR DEB, 475

Orbit data source: Space-Track

THOR ABLESTAR DEB, 475 is space debris in LEO originally from a launch on Thu, 29 Jun 1961 UTC launched from the Air Force Eastern Test Range (AFETR). Debris objects in space refer to the collection of defunct objects orbiting the Earth. Examples of debris include non-operational satellites, rocket bodies, and fragments generated from explosions, collisions, or faulty payload assembly.

Loading next visibility...
THOR ABLESTAR DEB details
Identifier
475, 1961-015FM
Orbit
LEO
Last TLE update22 hours ago
Origin
Flag of USUSAF SSD (US)
ManufacturerUnknown
MissionSpacecraft
Bus & MotorUnknown
MassUnknown
Launch date (UTC)
1961-06-29 (64 years ago)
Launch vehicleUnknown
Launch site
Air Force Eastern Test Range (AFETR)
Object type
Payload
Rocket body
Debris
Shape & HBRUnknown
Radar Cross SectionSmall (<0.1 m²)

Expand to show TLE details & history

TLE from 22 hours ago
0 THOR ABLESTAR DEB
1 00475U 61015FM  25024.07669724  .00008616  00000-0  36900-2 0  9994
2 00475  66.2244 278.2830 0141905  56.0107 305.4370 14.19977588215392
Epoch: 2025-01-24T01:50Z
Definitive object data (Epoch: 2025-01-24T01:50:26.641Z)
Latitude-0.00008°
Longitude127.0269°
Altitude769.188 km
Speed7.5 km/s
True Right ascension18h 33m 07s
True Declination0° 00' 00"
Sunlit
Object was in daylight at TLE epoch
Visualization TLE readout
Latitude-66.12613°
Longitude42.70579°
Altitude929.794 km
Speed7.345 km/s
Apparent Right ascension12h 47m 13s
Apparent Declination-53° 46' 38"
Sunlit
Object is in daylight
Visualization observer readout
Local Sidereal Time00:42:00
Azimuth183.211° SSW
Elevation-76.111°
Doppler factor1
Orbital elements
Apogee altitude926.066 km
Perigee altitude721.666 km
Semi-major axis7,202.003 km
Eccentricity0.0141905
Inclination66.2244°
RAAN278.283°
Arg. of periapsis56.0107°
True anomaly304.09848°
Mean anomaly305.437°
Eccentric anomaly304.76911°
Mean motion3.5511 °/min
BSTAR0.00369
Orbital period101.38 mins
Loading maneuver chart data...

THOR ABLESTAR DEB Visibility forecast

Observer location: undefined°, undefined

Span
Click to sort rows by Start time (UTC) header in descending order
Start Az.
Max El. time (UTC)
Max El. Az.
Max El.
End time (UTC)
End Az.
7 mins2025-01-25 02:01:21.955Z3.869° NNE2025-01-25 02:04:21.955Z40.823° NE17.822°2025-01-25 02:08:21.955Z88.802° E
9 mins2025-01-25 03:45:21.955Z324.274° NNW2025-01-25 03:49:21.955Z245.671° WSW43.63°2025-01-25 03:54:21.955Z160.278° S
8 mins2025-01-25 18:33:21.955Z221.965° SW2025-01-25 18:37:21.955Z314.294° NW42.168°2025-01-25 18:41:21.955Z22.612° NE
|